THORAD DELTA 1 DEB, 8560

Orbit data source: Space-Track

THORAD DELTA 1 DEB, 8560 is space debris in SSO originally from a launch on Fri, 15 Nov 1974 UTC launched from the Air Force Western Test Range (AFWTR). Debris objects in space refer to the collection of defunct objects orbiting the Earth. Examples of debris include non-operational satellites, rocket bodies, and fragments generated from explosions, collisions, or faulty payload assembly.

Loading next visibility...
Identifier
8560, 1974-089CX
Orbit
SSO
Country
Flag of USUS
Related business
Manufacturer
Unknown
Mission
Spacecraft
Bus & Motor
Unknown
Mass
Unknown
Launch date (UTC)
1974-11-15 (51 years ago)
Launch vehicle
Unknown
Launch site
Air Force Western Test Range (AFWTR)
Object type
Payload
Rocket body
Debris
Shape & HBR
Unknown shape, 0.1 m
Radar Cross Section
Small (<0.1 m²)

Expand to show TLE details & history
Last TLE update: 14 hours ago

TLE from 14 hours ago
0 THORAD DELTA 1 DEB
1 08560U 74089CX  25297.62445088  .00000597  00000-0  85654-3 0  9991
2 08560 102.1112 187.8328 0402420 127.4120 236.4338 13.32491976462382
Epoch: 2025-10-24T14:59Z
TLE epoch observation values (Epoch: 2025-10-24T14:59:12.556Z)
Latitude
-0.00003°
Longitude
-70.23619°
Altitude
1,315.477 km
Speed
7.115 km/s
True Right ascension
12h 31m 19s
True Declination
0° 00' 00"
Sunlit
Object was in daylight at epoch
Visualization orbit readout
Latitude
Unknown
Longitude
Unknown
Altitude
Unknown
Speed
Unknown
Apparent Right ascension
Unknown
Apparent Declination
Unknown
Sunlit
N/A
Visualization observer readout
Local Sidereal Time
00:32:01
Azimuth
Unknown
Elevation
Unknown
Doppler factor
Unknown
Orbital elements
Apogee altitude
1,437.171 km
Perigee altitude
832.497 km
Semi-major axis
7,512.971 km
Eccentricity
0.04024
Inclination
102.1112°
RAAN
187.8328°
Arg. of periapsis
127.412°
True anomaly
232.69809°
Mean anomaly
236.4338°
Eccentric anomaly
234.5554°
Mean motion
3.33293 °/min
Orbital period
108.01 mins
BSTAR
0.00085654
Loading maneuver chart data...
Computing Atmospheric mass density...

Documentation

Showing up to 5 results
|